CCR weather

Buchanan Field
Concord, California, United States

Public forecast

Using degrees Fahrenheit for public forecast. Weather courtesy of forecast.io.

Current aviation weather report (METAR) for Buchanan Field

Retrieved 2020/04/09 17:53 UTC (11 minutes ago):

KCCR 091753Z 08005KT 10SM FEW025 SCT040 BKN050 14/09 A3005 RMK AO2 SLP161 T01440094 10144 20122 51011

Aviation forecast (TAF) for Buchanan Field

Forecast is more than 12 hours old.

Retrieved 2016/02/08 00:21 UTC (4 years ago):

TAF KCCR 082320Z 0900/0924 06006KT P6SM SKC FM090600 VRB03KT P6SM SKC FM091800 04009KT P6SM SKC